Location: Bismarck
(46.7731°N, 100.8200°W)
Time: 12:54:48
(UTC-05:00)

ISS - All Passes

Search period start: 27 May 2015 00:00
Search period end: 06 June 2015 00:00
Orbit: 399 x 404 km, 51.6° (Epoch: 27 May)

Date Brightness Start Highest point End Pass type
(mag) Time Alt. Az. Time Alt. Az. Time Alt. Az.
27 May - 01:21:20 10° SW 01:24:32 63° SSE 01:27:47 10° ENE visible
27 May - 02:58:00 10° W 03:01:06 39° NNW 03:04:12 10° ENE visible
27 May - 04:34:55 10° WNW 04:37:59 36° N 04:41:04 10° ENE visible
27 May - 06:11:21 10° WNW 06:14:37 81° SSW 06:17:54 10° ESE daylight
27 May - 07:48:47 10° W 07:50:38 14° SW 07:52:23 10° SSW daylight
28 May - 00:28:23 10° SSW 00:31:24 36° SE 00:34:27 10° ENE visible
28 May - 02:04:35 10° W 02:07:46 50° NNW 02:10:58 10° ENE visible
28 May - 03:41:36 10° WNW 03:44:36 33° N 03:47:38 10° ENE visible
28 May - 05:18:06 10° WNW 05:21:23 66° NNE 05:24:38 10° ESE visible
28 May - 06:54:52 10° W 06:57:36 24° SW 07:00:16 10° SSE daylight
28 May - 23:35:48 10° S 23:38:19 21° SE 23:40:52 10° E visible
29 May - 01:11:13 10° WSW 01:14:28 72° NNW 01:17:44 10° ENE visible
29 May - 02:48:12 10° WNW 02:51:13 33° N 02:54:14 10° ENE visible
29 May - 04:24:53 10° WNW 04:28:04 47° NNE 04:31:14 10° E visible
29 May - 06:01:22 10° WNW 06:04:28 41° SW 06:07:34 10° SE daylight
29 May - 22:43:58 10° SSE 22:45:16 12° SE 22:46:40 10° ESE night (unlit)
30 May - 00:17:59 10° SW 00:21:13 72° SSE 00:24:28 10° ENE visible
30 May - 01:54:44 10° W 01:57:49 37° N 02:00:54 10° ENE visible
30 May - 03:31:37 10° WNW 03:34:41 37° N 03:37:46 10° E visible
30 May - 05:08:02 10° WNW 05:11:17 71° SSW 05:14:32 10° SE visible
30 May - 06:45:49 10° WSW 06:47:14 12° SW 06:48:34 10° SSW daylight
30 May - 23:24:57 10° SW 23:28:01 41° SE 23:31:07 10° ENE visible
31 May - 01:01:16 10° W 01:04:26 46° NNW 01:07:36 10° ENE visible
31 May - 02:38:16 10° WNW 02:41:17 33° N 02:44:19 10° ENE visible
31 May - 04:14:45 10° WNW 04:18:01 73° NNE 04:21:17 10° ESE visible
31 May - 05:51:37 10° W 05:54:11 21° SW 05:56:43 10° S daylight
31 May - 22:32:13 10° SSW 22:34:53 24° SE 22:37:35 10° E visible
01 Jun - 00:07:52 10° WSW 00:11:05 65° NNW 00:14:20 10° ENE visible
01 Jun - 01:44:51 10° WNW 01:47:51 33° N 01:50:52 10° ENE visible
01 Jun - 03:21:30 10° WNW 03:24:41 50° NNE 03:27:53 10° E visible
01 Jun - 04:58:00 10° WNW 05:01:03 36° SW 05:04:05 10° SSE visible
01 Jun - 21:40:04 10° SSE 21:41:48 14° SE 21:43:36 10° ESE daylight
01 Jun - 23:14:33 10° WSW 23:17:47 81° SSE 23:21:03 10° ENE visible
02 Jun - 00:51:22 10° WNW 00:54:25 36° N 00:57:29 10° ENE visible
02 Jun - 02:28:12 10° WNW 02:31:18 39° NNE 02:34:23 10° E visible
02 Jun - 04:04:37 10° WNW 04:07:51 63° SSW 04:11:05 10° SE visible
02 Jun - 05:43:02 10° WSW 05:43:45 10° SW 05:44:20 10° SW daylight
02 Jun - 22:21:25 10° SW 22:24:32 47° SSE 22:27:42 10° ENE visible
02 Jun - 23:57:52 10° W 00:01:00 43° NNW 00:04:09 10° ENE visible
03 Jun - 01:34:50 10° WNW 01:37:52 34° N 01:40:54 10° ENE visible
03 Jun - 03:11:18 10° WNW 03:14:34 81° NNE 03:17:50 10° ESE visible
03 Jun - 04:48:18 10° W 04:50:40 19° SW 04:53:00 10° S visible
03 Jun - 21:28:34 10° SSW 21:31:22 27° SE 21:34:11 10° E daylight
03 Jun - 23:04:24 10° WSW 23:07:37 60° NNW 23:10:51 10° ENE visible
04 Jun - 00:41:24 10° WNW 00:44:24 33° N 00:47:25 10° ENE visible
04 Jun - 02:18:00 10° WNW 02:21:13 54° NNE 02:24:26 10° E visible
04 Jun - 03:54:34 10° WNW 03:57:32 32° SW 04:00:28 10° SSE visible
04 Jun - 20:36:12 10° S 20:38:14 16° SE 20:40:20 10° E daylight
04 Jun - 22:11:01 10° WSW 22:14:16 90° SSW 22:17:32 10° ENE visible
04 Jun - 23:47:54 10° WNW 23:50:56 35° N 23:53:59 10° ENE visible
05 Jun - 01:24:41 10° WNW 01:27:48 41° NNE 01:30:55 10° E visible
05 Jun - 03:01:06 10° WNW 03:04:18 55° SSW 03:07:30 10° SE visible
05 Jun - 21:17:49 10° SW 21:20:58 54° SSE 21:24:10 10° ENE daylight
05 Jun - 22:54:22 10° W 22:57:29 41° NNW 23:00:35 10° ENE visible
